Weather in Vigoda

Ukraine / Ivano-Frankovsk District     48°55′40″N   23°55′09″E
temp.,
°C
wind,
m/s
gust,
m/s
humid.,
%
clouds,
%
prec.,
mm/h
press.,
hPa
HPBL,
m
18 october, mon
mon1800:00+3sw118838 0.0 102410
03:00+3sw2291100 0.0 102318
06:00+3sw229070 0.0 102323
09:00+5wsw2478100 0.0 102494
12:00+9wnw4659100 0.0 10241128
15:00+10nw5659100 0.0 10231270
18:00+8wnw3676100 0.0 1024286
21:00+7wnw237899 0.0 102663
19 october, tue
tue1900:00+7wsw2377100 0.0 102662
03:00+7w2484100 0.4 1027137
06:00+7wnw2588100 0.2 1027170
09:00+7wnw1286100 0.3 102958
12:00+10wnw1373100 0.1 1029623
15:00+11wsw1468100 0.1 1028624
18:00+10sw2274100 0.0 102768
21:00+7ssw238755 0.0 102745
20 october, wed
wed2000:00+5ssw338610 0.0 102738
03:00+5ssw228213 0.0 102633
06:00+5s238144 0.0 102478
09:00+7s2480100 0.0 1023117
12:00+14sw51047100 0.0 1021840
15:00+15sw51148100 0.0 1020825
18:00+12ssw3105571 0.0 1019385
21:00+8ssw3870100 0.0 1018199
21 october, thu
thu2100:00+9ssw3958100 0.0 1016228
03:00+10ssw3953100 0.0 1015246
06:00+10sse2754100 0.0 1013247
09:00+11s3115244 0.0 1012347
12:00+16sw7174686 0.0 10111283
15:00+14sw92150100 0.0 10111392
18:00+14sw101557100 0.0 1011652
21:00+14sw61361100 0.0 1011494
22 october, fri
fri2200:00+13sw91767100 0.0 1012745
03:00+13sw5146825 0.0 1011533
06:00+12sw41272100 0.0 1011363
09:00+11se2279100 0.1 101151
12:00+13ssw31066100 0.1 1011955
15:00+14ssw41259100 0.1 10091133
18:00+13s2265100 0.0 100847
21:00+12s2470100 0.0 1008128